When you browse on this site, cookies collect data to enhance your experience and personalize the content and advertising you see.
Visit our Privacy Policy to learn more. By continuing to use the site, you agree to this use of cookies and data.
  • In United Kingdom
  • List of Countries
  • For 7 days
  • Water Temperature
  • Satellite Maps
  • Weather Map
  • Weather Widgets
  • user-avatar
    Login

    Hourly Weather Wewak

    Today, 24 April, Wednesday

    Time Temperature Precipitation Wind Pressure Humidity
    00:00 +28°C° 0.3 mm 4 mps 755 mmHg 96%
    01:00 +28°C° 0.3 mm 4 mps 755 mmHg 97%
    02:00 +27°C° 0 mm 3 mps 755 mmHg 97%
    03:00 +27°C° 0 mm 3 mps 755 mmHg 97%
    04:00 +27°C° 0 mm 3 mps 754 mmHg 97%
    05:00 +27°C° 0 mm 3 mps 755 mmHg 97%
    06:00 +27°C° 0 mm 3 mps 755 mmHg 97%
    07:00 +27°C° 0 mm 3 mps 755 mmHg 97%
    08:00 +29°C° 0 mm 3 mps 755 mmHg 87%
    09:00 +31°C° 0 mm 3 mps 755 mmHg 77%
    10:00 +34°C° 0 mm 3 mps 756 mmHg 66%
    11:00 +35°C° 0 mm 3 mps 755 mmHg 62%
    12:00 +36°C° 0 mm 3 mps 755 mmHg 58%
    13:00 +37°C° 0 mm 3 mps 754 mmHg 54%
    14:00 +36°C° 0.1 mm 4 mps 754 mmHg 59%
    15:00 +35°C° 0.1 mm 4 mps 753 mmHg 64%
    16:00 +34°C° 0.1 mm 4 mps 753 mmHg 68%
    17:00 +33°C° 0 mm 4 mps 753 mmHg 75%
    18:00 +30°C° 0 mm 3 mps 753 mmHg 82%
    19:00 +29°C° 0 mm 3 mps 754 mmHg 89%
    20:00 +28°C° 0.2 mm 3 mps 754 mmHg 91%
    21:00 +28°C° 0.2 mm 2 mps 754 mmHg 94%
    22:00 +28°C° 0.2 mm 2 mps 755 mmHg 96%
    23:00 +28°C° 0.3 mm 2 mps 755 mmHg 96%

    Tomorrow, 25 April, Thursday

    Time Temperature Precipitation Wind Pressure Humidity
    00:00 +27°C° 0.3 mm 2 mps 755 mmHg 96%
    01:00 +27°C° 0.3 mm 2 mps 754 mmHg 97%
    02:00 +27°C° 0 mm 2 mps 754 mmHg 97%
    03:00 +27°C° 0 mm 2 mps 754 mmHg 97%
    04:00 +27°C° 0 mm 2 mps 754 mmHg 97%
    05:00 +27°C° 0 mm 2 mps 754 mmHg 97%
    06:00 +27°C° 0 mm 2 mps 754 mmHg 97%
    07:00 +27°C° 0 mm 2 mps 754 mmHg 97%
    08:00 +29°C° 0.4 mm 2 mps 755 mmHg 89%
    09:00 +31°C° 0.4 mm 2 mps 755 mmHg 80%
    10:00 +34°C° 0.4 mm 2 mps 755 mmHg 71%
    11:00 +35°C° 0.1 mm 2 mps 754 mmHg 66%
    12:00 +36°C° 0.1 mm 2 mps 754 mmHg 60%
    13:00 +37°C° 0.1 mm 3 mps 753 mmHg 54%
    14:00 +35°C° 0.3 mm 3 mps 753 mmHg 65%
    15:00 +34°C° 0.3 mm 3 mps 752 mmHg 77%
    16:00 +31°C° 0.3 mm 3 mps 752 mmHg 88%
    17:00 +30°C° 0.2 mm 3 mps 752 mmHg 90%
    18:00 +29°C° 0.2 mm 2 mps 753 mmHg 92%
    19:00 +28°C° 0.2 mm 2 mps 753 mmHg 94%
    20:00 +28°C° 0.2 mm 2 mps 754 mmHg 95%
    21:00 +28°C° 0.2 mm 2 mps 754 mmHg 95%
    22:00 +28°C° 0.2 mm 2 mps 755 mmHg 96%
    23:00 +27°C° 0.4 mm 2 mps 755 mmHg 96%

    Day after tomorrow, 26 April, Friday

    Time Temperature Precipitation Wind Pressure Humidity
    00:00 +27°C° 0.4 mm 1 mps 754 mmHg 96%
    01:00 +27°C° 0.4 mm 1 mps 754 mmHg 96%
    02:00 +27°C° 0.1 mm 2 mps 754 mmHg 97%
    03:00 +27°C° 0.1 mm 2 mps 754 mmHg 97%
    04:00 +27°C° 0.1 mm 2 mps 753 mmHg 97%
    05:00 +27°C° 0 mm 2 mps 754 mmHg 97%
    06:00 +27°C° 0 mm 2 mps 754 mmHg 97%
    07:00 +27°C° 0 mm 2 mps 754 mmHg 97%
    08:00 +29°C° 0 mm 2 mps 754 mmHg 87%
    09:00 +31°C° 0 mm 2 mps 755 mmHg 77%
    10:00 +34°C° 0 mm 2 mps 755 mmHg 67%
    11:00 +35°C° 0 mm 2 mps 754 mmHg 62%
    12:00 +36°C° 0 mm 3 mps 753 mmHg 57%
    13:00 +37°C° 0 mm 3 mps 753 mmHg 53%
    14:00 +36°C° 0 mm 3 mps 752 mmHg 56%
    15:00 +36°C° 0 mm 3 mps 751 mmHg 59%
    16:00 +35°C° 0 mm 3 mps 751 mmHg 62%
    17:00 +33°C° 0 mm 3 mps 751 mmHg 71%
    18:00 +31°C° 0 mm 2 mps 752 mmHg 80%
    19:00 +29°C° 0 mm 2 mps 752 mmHg 89%
    20:00 +28°C° 0 mm 2 mps 753 mmHg 90%
    21:00 +28°C° 0 mm 2 mps 753 mmHg 91%
    22:00 +28°C° 0 mm 2 mps 754 mmHg 93%
    23:00 +28°C° 0.3 mm 1 mps 754 mmHg 94%

    27 April, Saturday

    Time Temperature Precipitation Wind Pressure Humidity
    00:00 +27°C° 0.3 mm 1 mps 754 mmHg 96%
    01:00 +27°C° 0.3 mm 1 mps 753 mmHg 97%
    02:00 +27°C° 0.1 mm 1 mps 753 mmHg 98%
    03:00 +27°C° 0.1 mm 1 mps 753 mmHg 98%
    04:00 +27°C° 0.1 mm 1 mps 752 mmHg 98%
    05:00 +27°C° 0.1 mm 1 mps 753 mmHg 98%
    06:00 +27°C° 0.1 mm 1 mps 753 mmHg 97%
    07:00 +27°C° 0.1 mm 1 mps 754 mmHg 97%
    08:00 +29°C° 0.1 mm 1 mps 754 mmHg 87%
    09:00 +31°C° 0.1 mm 1 mps 755 mmHg 78%
    10:00 +33°C° 0.1 mm 1 mps 755 mmHg 69%
    11:00 +35°C° 0.1 mm 2 mps 754 mmHg 64%
    12:00 +36°C° 0.1 mm 2 mps 753 mmHg 59%
    13:00 +38°C° 0.1 mm 2 mps 753 mmHg 54%
    14:00 +36°C° 0.4 mm 2 mps 752 mmHg 61%
    15:00 +35°C° 0.4 mm 2 mps 751 mmHg 68%
    16:00 +34°C° 0.4 mm 2 mps 751 mmHg 75%
    17:00 +32°C° 0 mm 2 mps 751 mmHg 78%
    18:00 +30°C° 0 mm 2 mps 752 mmHg 82%
    19:00 +29°C° 0 mm 1 mps 752 mmHg 86%
    20:00 +29°C° 0 mm 1 mps 753 mmHg 86%
    21:00 +28°C° 0 mm 1 mps 754 mmHg 87%
    22:00 +28°C° 0 mm 1 mps 754 mmHg 87%
    23:00 +28°C° 0.1 mm 1 mps 754 mmHg 89%

    28 April, Sunday

    Time Temperature Precipitation Wind Pressure Humidity
    00:00 +28°C° 0.1 mm 1 mps 754 mmHg 90%
    01:00 +25°C° 0.1 mm 0 mps 753 mmHg 92%
    02:00 +27°C° 0 mm 1 mps 753 mmHg 92%
    03:00 +27°C° 0 mm 1 mps 753 mmHg 93%
    04:00 +27°C° 0 mm 1 mps 753 mmHg 94%
    05:00 +27°C° 0 mm 1 mps 753 mmHg 93%
    06:00 +27°C° 0 mm 1 mps 754 mmHg 93%
    07:00 +27°C° 0 mm 1 mps 754 mmHg 93%
    08:00 +29°C° 0 mm 1 mps 754 mmHg 83%
    09:00 +31°C° 0 mm 1 mps 755 mmHg 74%
    10:00 +32°C° 0 mm 0 mps 755 mmHg 64%
    11:00 +34°C° 0 mm 1 mps 754 mmHg 61%
    12:00 +35°C° 0 mm 1 mps 753 mmHg 59%
    13:00 +35°C° 0 mm 1 mps 753 mmHg 56%
    14:00 +36°C° 0 mm 2 mps 752 mmHg 59%
    15:00 +35°C° 0 mm 2 mps 752 mmHg 61%
    16:00 +35°C° 0 mm 3 mps 751 mmHg 63%
    17:00 +32°C° 0.1 mm 2 mps 752 mmHg 73%
    18:00 +30°C° 0.1 mm 2 mps 753 mmHg 82%
    19:00 +28°C° 0.1 mm 1 mps 753 mmHg 92%
    20:00 +28°C° 0 mm 1 mps 754 mmHg 92%
    21:00 +28°C° 0 mm 1 mps 754 mmHg 92%
    22:00 +27°C° 0 mm 1 mps 755 mmHg 92%
    23:00 +27°C° 0 mm 1 mps 754 mmHg 93%

    29 April, Monday

    Time Temperature Precipitation Wind Pressure Humidity
    00:00 +27°C° 0 mm 1 mps 754 mmHg 93%
    01:00 +27°C° 0 mm 1 mps 754 mmHg 94%
    02:00 +27°C° 0.1 mm 1 mps 754 mmHg 95%
    03:00 +27°C° 0.1 mm 1 mps 753 mmHg 96%
    04:00 +26°C° 0.1 mm 1 mps 753 mmHg 97%
    05:00 +26°C° 0 mm 1 mps 754 mmHg 97%
    06:00 +27°C° 0 mm 1 mps 754 mmHg 96%
    07:00 +27°C° 0 mm 1 mps 755 mmHg 96%
    08:00 +29°C° 0.3 mm 1 mps 755 mmHg 88%
    09:00 +29°C° 0.3 mm 0 mps 755 mmHg 80%
    10:00 +31°C° 0.3 mm 0 mps 755 mmHg 73%
    11:00 +31°C° 0.4 mm 0 mps 754 mmHg 74%
    12:00 +33°C° 0.4 mm 1 mps 754 mmHg 75%
    13:00 +33°C° 0.4 mm 1 mps 753 mmHg 76%
    14:00 +33°C° 0.1 mm 1 mps 753 mmHg 73%
    15:00 +34°C° 0.1 mm 2 mps 752 mmHg 71%
    16:00 +34°C° 0.1 mm 2 mps 752 mmHg 68%
    17:00 +32°C° 0.1 mm 2 mps 752 mmHg 74%
    18:00 +30°C° 0.1 mm 2 mps 753 mmHg 81%
    19:00 +28°C° 0.1 mm 2 mps 754 mmHg 87%
    20:00 +28°C° 0 mm 1 mps 754 mmHg 87%
    21:00 +28°C° 0 mm 1 mps 755 mmHg 88%
    22:00 +28°C° 0 mm 1 mps 755 mmHg 88%
    23:00 +27°C° 0.1 mm 1 mps 755 mmHg 89%
    Show more